Volver al catálogo

COSMOS 2251 DEB

ActivoLEO
NORAD 35663·DEBRIS·🇷🇺 Russia

Lanzado Jun 16, 1993 desde Plesetsk Cosmodrome

Loading…

Próximos Pases (próximas 24 horas)

TLE

ObsoletoSource: Space-Track

Época: Sep 5, 2026, 11:58 UTC

1 35663U 93036APE 26248.49868034  .00002760  00000-0  47450-3 0  9996
2 35663  74.0187 328.8454 0008697 330.6784  29.3897 14.69119957772957

Sigue COSMOS 2251 DEB en tiempo real con AllMySat

Download on the App Store